Regional Weather Roundup
Issued by NWS

Home | Current Version | Previous Version | Text Only | Print | Product List | Glossary On
Versions: 1 2 3 4 5 6 7 8 9 10 11 12 13 14 15 16 17 18 19 20 21 22 23 24 25 26 27 28 29 30 31 32 33 34 35 36 37 38 39 40 41 42 43 44 45 46 47 48 49 50
000
ASUS45 KPSR 250210
RWRAZ

ARIZONA HOURLY REGIONAL WEATHER ROUNDUP
NATIONAL WEATHER SERVICE PHOENIX AZ
700 PM MST FRI NOV 24 2017

NOTE: FAIR INDICATES FEW OR NO CLOUDS BELOW 12,000 FEET WITH NO
SIGNIFICANT WEATHER AND/OR OBSTRUCTIONS TO VISIBILITY.

AZZ001>003-036-250300-
NORTHWEST ARIZONA

CITY           SKY/WX    TMP DP  RH WIND       PRES   REMARKS
BULLHEAD CITY  CLEAR     75  34  22 CALM      29.89R
KINGMAN        CLEAR     58  26  29 CALM      30.03R
$$

AZZ004>008-015-016-018-250300-
NORTH CENTRAL ARIZONA

CITY           SKY/WX    TMP DP  RH WIND       PRES   REMARKS
GRAND CANYON   PTCLDY    38  17  42 NE5       30.19R WCI  34
WILLIAMS       PTCLDY    50  14  23 CALM      30.19R
PRESCOTT       CLEAR     61  26  26 S9        30.08R
FLAGSTAFF      PTCLDY    48  19  31 CALM      30.20R
PAYSON         PTCLDY    63  27  25 E6        30.11S
PAGE           CLEAR     54  32  43 W6        30.02R
$$

AZZ009>014-017-250300-
NORTHEAST ARIZONA

CITY           SKY/WX    TMP DP  RH WIND       PRES   REMARKS
WINSLOW        PTCLDY    49  17  28 W5        30.07R
SAINT JOHNS    PTCLDY    57  17  21 W6        30.09R
WINDOW ROCK    PTCLDY    51  15  23 CALM      30.14R
SHOW LOW       PTCLDY    57  23  26 S12       30.17R
$$

AZZ540-542>544-546-548-250300-
GREATER PHOENIX AREA

CITY           SKY/WX    TMP DP  RH WIND       PRES   REMARKS
PHOENIX        CLEAR     78  36  21 VRB5      29.87R
BUCKEYE        CLEAR     68  32  26 NE8       29.88S
GLENDALE       PTCLDY    75  36  23 CALM      29.89R
LUKE AFB       CLEAR     75  38  25 SW6       29.86R
DEER VALLEY    CLEAR     73  34  23 E5        29.90R
SCOTTSDALE     CLEAR     74  38  27 CALM      29.91R
MESA-FALCON    PTCLDY    73  34  23 CALM      29.90R
MESA-GATEWAY   PTCLDY    70  34  26 CALM      29.91R
CHANDLER       CLEAR     72  39  30 CALM      29.89
$$

AZZ539-553-250300-
SOUTHWEST MARICOPA COUNTY AND PINAL COUNTY

CITY           SKY/WX    TMP DP  RH WIND       PRES   REMARKS
CASA GRANDE    NOT AVBL
$$

AZZ503-504-507>509-250300-
SOUTHEAST ARIZONA

CITY           SKY/WX    TMP DP  RH WIND       PRES   REMARKS
TUCSON         CLEAR     71  29  21 SW3       29.99R
DAVIS-MONTHAN  CLEAR     69  24  18 NW3       29.97R
RYAN FIELD     CLEAR     68  28  22 SW6       29.98R
NOGALES        CLEAR     64  23  21 E5        30.05R
SIERRA VISTA   CLEAR     64  22  20 W12       30.10R
DOUGLAS        CLEAR     60  20  21 N9        30.05R
SAFFORD        CLEAR     64  24  21 NW8       29.95R
$$

AZZ532-250300-
SOUTHWEST ARIZONA

CITY           SKY/WX    TMP DP  RH WIND       PRES   REMARKS
YUMA           PTCLDY    74  46  36 W3        29.84R
$$

CAZ041-043-047-048-061-525>527-560>570-250300-
SOUTHERN CALIFORNIA

CITY           SKY/WX    TMP DP  RH WIND       PRES   REMARKS
DOWNTOWN L.A.  PTCLDY    72  53  51 CALM      29.85R
L.A. AIRPORT   PTCLDY    72  54  53 VRB3      29.86R
SAN DIEGO      PTCLDY    69  61  75 CALM      29.88S
BURBANK        PTCLDY    77  49  37 CALM      29.88R
ONTARIO        PTCLDY    76  42  29 W5        29.88R
RIVERSIDE      CLEAR     76  43  30 CALM      29.88R
PALM SPRINGS   CLEAR     78  45  30 CALM      29.87R
EL CENTRO NAS  PTCLDY    73  45  36 NE5       29.84R
IMPERIAL       CLEAR     74  44  34 CALM      29.82R
BLYTHE         CLEAR     73  41  31 CALM      29.85R
NEEDLES        CLEAR     73  34  23 W7        29.89R
$$

NVZ020-UTZ003-250300-
SOUTHERN NEVADA-UTAH

CITY           SKY/WX    TMP DP  RH WIND       PRES   REMARKS
LAS VEGAS      PTCLDY    69  38  32 S3        29.96S
SALT LAKE CITY CLOUDY    52  40  63 CALM      30.10S
$$

NMZ009-TXZ055-250300-
NEW MEXICO-WEST TEXAS

CITY           SKY/WX    TMP DP  RH WIND       PRES   REMARKS
ALBUQUERQUE    CLOUDY    56  23  27 E3        30.04R
EL PASO        CLEAR     64  28  25 SE7       29.97R
$$


........................KEY........................
SKY/WX - SKY CONDITION/WEATHER
TMP    - TEMPERATURE IN FAHRENHEIT
DP     - DEW POINT IN FAHRENHEIT
RH     - RELATIVE HUMIDITY IN PERCENT
WIND   - DIRECTION AND SPEED IN MILES PER HOUR (MPH)
VRB    - VARIABLE WIND DIRECTION
PRES   - MEAN SEA LEVEL PRESSURE IN INCHES OF MERCURY
         F - FALLING PRESSURE   R - RISING PRESSURE
         S - STEADY PRESSURE
VSB    - VISIBILITY IN MILES
HX     - HEAT INDEX IN FAHRENHEIT
WCI    - WIND CHILL INDEX IN FAHRENHEIT
TC     - TEMPERATURE IN CELSIUS WHICH IS ALSO KNOWN AS
         TEMPERATURE IN CENTIGRADE
AFB    - AIR FORCE BASE
         LUKE AFB IS LUKE AIR FORCE BASE
         DAVIS-MONTHAN IS DAVIS-MONTHAN AIR FORCE BASE
NAS    - NAVAL AIR STATION
         EL CENTRO NAS IS EL CENTRO NAVAL AIR STATION
N/A    - NOT AVAILABLE




USA.gov is the U.S. government's official web portal to all federal, state and local government web resources and services.